KB1WCR Weather Reports


time (UTC)temp
C
wind
direction
speed
KPH
gust
KPH
rain 1hr
cm
rain 24hr
cm
rain mn
cm
humidity
%
barometer
mb
20260504231723 19 245 3.2 3.2 0.00 0.00 0.00 42 1005.5
20260504231219 19 259 1.6 1.6 0.00 0.00 0.00 42 1005.2
20260504230715 19 196 8.0 11.3 0.00 0.00 0.00 41 1005.4
20260504230214 20 236 3.2 3.2 0.00 0.00 0.00 40 1005.2
20260504225712 20 260 4.8 4.8 0.00 0.00 0.00 41 1005.0
20260504225208 20 264 3.2 3.2 0.00 0.00 0.00 40 1005.1
20260504224705 20 227 4.8 4.8 0.00 0.00 0.00 40 1005.2
20260504224203 20 288 4.8 6.4 0.00 0.00 0.00 39 1005.1
20260504223659 20 218 4.8 6.4 0.00 0.00 0.00 40 1005.1
20260504223154 20 290 8.0 9.7 0.00 0.00 0.00 40 1005.0
20260504222652 20 286 1.6 1.6 0.00 0.00 0.00 42 1004.9
20260504222148 20 300 1.6 3.2 0.00 0.00 0.00 41 1005.0
20260504221646 20 270 1.6 1.6 0.00 0.00 0.00 41 1005.0
20260504221143 20 265 4.8 6.4 0.00 0.00 0.00 40 1005.1
20260504220639 20 203 6.4 9.7 0.00 0.00 0.00 40 1005.0
20260504220137 20 257 9.7 12.9 0.00 0.00 0.00 39 1004.7
20260504215633 20 221 12.9 16.1 0.00 0.00 0.00 39 1005.0
20260504215131 20 212 9.7 12.9 0.00 0.00 0.00 40 1004.9
20260504214626 20 219 6.4 9.7 0.00 0.00 0.00 39 1004.9
20260504214123 20 223 14.5 17.7 0.00 0.00 0.00 38 1004.9
20260504213619 21 221 9.7 12.9 0.00 0.00 0.00 39 1004.9
20260504213116 20 261 9.7 16.1 0.00 0.00 0.00 40 1005.0
20260504212612 20 208 8.0 11.3 0.00 0.00 0.00 40 1005.0
20260504212110 20 247 3.2 4.8 0.00 0.00 0.00 41 1005.0
20260504211607 20 208 6.4 9.7 0.00 0.00 0.00 41 1005.0
20260504211103 20 225 3.2 4.8 0.00 0.00 0.00 40 1004.8
20260504210601 21 211 9.7 14.5 0.00 0.00 0.00 39 1005.0
20260504210057 21 272 4.8 6.4 0.00 0.00 0.00 39 1005.0
20260504205555 21 153 11.3 12.9 0.00 0.00 0.00 37 1004.9
20260504205053 21 257 4.8 6.4 0.00 0.00 0.00 41 1004.9
20260504204550 21 254 4.8 9.7 0.00 0.00 0.00 40 1004.9
20260504204049 21 181 9.7 11.3 0.00 0.00 0.00 39 1004.9
20260504203547 21 329 3.2 4.8 0.00 0.00 0.00 42 1004.9
20260504203044 21 266 9.7 11.3 0.00 0.00 0.00 40 1004.8
20260504202539 20 285 11.3 12.9 0.00 0.00 0.00 39 1004.8
20260504202037 20 271 12.9 16.1 0.00 0.00 0.00 41 1004.9
20260504201534 20 220 8.0 11.3 0.00 0.00 0.00 41 1004.9
20260504201032 20 284 3.2 4.8 0.00 0.00 0.00 43 1005.0
20260504200527 20 248 8.0 12.9 0.00 0.00 0.00 41 1004.9
20260504200025 20 252 6.4 6.4 0.00 0.00 0.00 42 1004.9
20260504195521 20 294 8.0 11.3 0.00 0.00 0.00 43 1004.9
20260504195017 21 266 11.3 17.7 0.00 0.00 0.00 41 1005.1
20260504194514 21 280 8.0 11.3 0.00 0.00 0.00 41 1005.2
20260504194009 20 276 4.8 6.4 0.00 0.00 0.00 43 1005.1
20260504193506 20 210 9.7 11.3 0.00 0.00 0.00 42 1005.2
20260504193005 20 244 11.3 20.9 0.00 0.00 0.00 42 1005.2
20260504192503 21 22 3.2 4.8 0.00 0.00 0.00 42 1005.0
20260504192001 20 251 3.2 4.8 0.00 0.00 0.00 44 1005.2
20260504191458 20 308 20.9 27.4 0.00 0.00 0.00 41 1005.1
20260504190954 20 230 6.4 11.3 0.00 0.00 0.00 43 1005.0
20260504190449 20 302 11.3 14.5 0.00 0.00 0.00 42 1005.1
20260504185946 19 193 6.4 6.4 0.00 0.00 0.00 44 1005.2
20260504185444 18 198 6.4 9.7 0.00 0.00 0.00 46 1005.3
20260504184939 18 235 6.4 6.4 0.00 0.00 0.00 46 1005.1
20260504184436 17 237 3.2 3.2 0.00 0.00 0.00 46 1005.5
20260504183931 17 288 6.4 9.7 0.00 0.00 0.00 46 1005.4
20260504183429 17 283 9.7 11.3 0.00 0.00 0.00 45 1005.4
20260504182927 17 265 9.7 11.3 0.00 0.00 0.00 46 1005.5
20260504182423 17 17 1.6 3.2 0.00 0.00 0.00 46 1005.7
20260504181921 17 292 4.8 4.8 0.00 0.00 0.00 45 1005.6
20260504181418 17 276 9.7 14.5 0.00 0.00 0.00 43 1005.4
20260504180916 17 305 6.4 12.9 0.00 0.00 0.00 44 1005.3
20260504180415 17 226 4.8 4.8 0.00 0.00 0.00 45 1005.4
20260504175913 18 252 3.2 6.4 0.00 0.00 0.00 43 1005.5
20260504175409 18 266 4.8 6.4 0.00 0.00 0.00 44 1005.7
20260504174907 18 283 4.8 4.8 0.00 0.00 0.00 43 1005.5
20260504174404 18 226 8.0 11.3 0.00 0.00 0.00 42 1005.5
20260504173902 18 277 6.4 9.7 0.00 0.00 0.00 43 1005.4
20260504173358 18 298 9.7 12.9 0.00 0.00 0.00 41 1005.5
20260504172855 18 173 11.3 17.7 0.00 0.00 0.00 41 1005.4
20260504172352 18 225 4.8 9.7 0.00 0.00 0.00 42 1005.7
20260504171847 18 266 11.3 17.7 0.00 0.00 0.00 40 1005.3
20260504171345 18 261 11.3 14.5 0.00 0.00 0.00 41 1005.6
20260504170842 19 269 9.7 12.9 0.00 0.00 0.00 41 1005.2
20260504170338 19 294 14.5 17.7 0.00 0.00 0.00 40 1005.1
20260504160257 18 277 12.9 16.1 0.00 0.00 0.00 46 1005.3
20260504150722 16 201 14.5 22.5 0.00 0.00 0.00 49 1006.3
20260504150219 16 257 8.0 11.3 0.00 0.00 0.00 51 1006.3
20260504141148 15 216 6.4 9.7 0.00 0.00 0.00 58 1007.1
20260504140645 14 220 3.2 3.2 0.00 0.00 0.00 61 1007.3
20260504140140 13 234 0.0 0.0 0.00 0.00 0.00 62 1007.3
20260504130609 10 263 1.6 1.6 0.00 0.00 0.00 71 1008.0
20260504130106 10 227 3.2 3.2 0.00 0.00 0.00 70 1008.3
20260504110457 7 281 0.0 0.0 0.00 0.00 0.00 78 1008.6
20260504100419 2 13 0.0 0.0 0.00 0.00 0.00 90 1008.5
20260504081812 0 296 0.0 0.0 0.00 0.00 0.00 96 1008.5
20260504081309 0 45 0.0 0.0 0.00 0.00 0.00 96 1008.4
20260504080805 0 303 0.0 0.0 0.00 0.00 0.00 95 1008.4
20260504080302 0 310 0.0 0.0 0.00 0.00 0.00 95 1008.4
20260504070229 -1 329 0.0 0.0 0.00 0.00 0.00 97 1008.4
20260504060150 -1 316 0.0 0.0 0.00 0.00 0.00 97 1008.3
20260504050618 -1 314 0.0 0.0 0.00 0.00 0.00 96 1008.3
20260504050115 -1 307 0.0 0.0 0.00 0.00 0.00 96 1008.2
20260504045612 -1 299 0.0 0.0 0.00 0.00 0.00 96 1008.3
20260504045107 -1 292 0.0 0.0 0.00 0.00 0.00 96 1008.3
20260504044605 -1 300 0.0 0.0 0.00 0.00 0.00 96 1008.1
20260504044102 -1 292 0.0 0.0 0.00 0.00 0.00 96 1008.2
20260504043559 -1 331 0.0 0.0 0.00 0.00 0.00 96 1008.1
20260504043055 -1 331 0.0 0.0 0.00 0.00 0.00 95 1008.1
20260504042553 -1 331 0.0 0.0 0.00 0.00 0.00 95 1008.1
20260504042050 -1 307 0.0 0.0 0.00 0.00 0.00 95 1008.1
20260504041545 -1 318 0.0 0.0 0.00 0.00 0.00 95 1008.0
20260504041042 0 290 0.0 0.0 0.00 0.00 0.00 95 1008.1
20260504040539 0 303 0.0 0.0 0.00 0.00 0.00 94 1008.0
20260504040036 0 297 0.0 0.0 0.00 0.00 0.00 94 1007.9
20260504035532 0 294 0.0 0.0 0.00 0.00 0.00 94 1008.0
20260504035029 0 294 0.0 0.0 0.00 0.00 0.00 94 1008.0
20260504034527 -1 292 0.0 0.0 0.00 0.00 0.00 93 1008.0
20260504034024 0 293 0.0 0.0 0.00 0.00 0.00 93 1007.8
20260504033522 0 290 0.0 0.0 0.00 0.00 0.00 93 1007.9
20260504033019 0 290 0.0 0.0 0.00 0.00 0.00 92 1007.7
20260504032515 0 296 0.0 0.0 0.00 0.00 0.00 92 1008.0
20260504032012 0 296 0.0 0.0 0.00 0.00 0.00 92 1007.8
20260504031509 0 299 0.0 0.0 0.00 0.00 0.00 91 1007.9
20260504031005 0 327 0.0 0.0 0.00 0.00 0.00 90 1008.0
20260504030503 0 280 0.0 0.0 0.00 0.00 0.00 91 1008.0
20260504025958 0 310 0.0 0.0 0.00 0.00 0.00 90 1007.8
20260504025456 0 294 0.0 0.0 0.00 0.00 0.00 89 1007.8
20260504024952 0 298 0.0 0.0 0.00 0.00 0.00 89 1007.9
20260504024449 1 303 0.0 0.0 0.00 0.00 0.00 88 1007.8
20260504023947 1 311 0.0 0.0 0.00 0.00 0.00 87 1007.7
20260504023444 1 319 0.0 0.0 0.00 0.00 0.00 87 1007.6
20260504022938 1 286 0.0 0.0 0.00 0.00 0.00 87 1007.8
20260504022435 1 297 0.0 0.0 0.00 0.00 0.00 86 1007.8
20260504021932 1 288 0.0 0.0 0.00 0.00 0.00 86 1007.8
20260504021429 1 316 0.0 0.0 0.00 0.00 0.00 85 1007.9
20260504020926 2 300 0.0 0.0 0.00 0.00 0.00 83 1007.9
20260504020423 2 294 0.0 0.0 0.00 0.00 0.00 82 1007.8
20260504015920 2 296 0.0 0.0 0.00 0.00 0.00 81 1007.7
20260504015416 2 292 0.0 0.0 0.00 0.00 0.00 80 1007.8
20260504014912 2 288 0.0 0.0 0.00 0.00 0.00 80 1007.7
20260504014408 2 296 0.0 0.0 0.00 0.00 0.00 80 1007.9
20260504013905 3 299 0.0 0.0 0.00 0.00 0.00 78 1007.8
20260504013403 3 322 0.0 0.0 0.00 0.00 0.00 78 1007.5
20260504012859 3 299 0.0 0.0 0.00 0.00 0.00 77 1007.8
20260504012357 3 316 0.0 0.0 0.00 0.00 0.00 75 1007.7
20260504011854 4 312 0.0 0.0 0.00 0.00 0.00 72 1007.6
20260504011351 5 305 0.0 0.0 0.00 0.00 0.00 71 1007.6
20260504010847 5 283 0.0 0.0 0.00 0.00 0.00 66 1007.4
20260504010343 6 278 0.0 0.0 0.00 0.00 0.00 64 1007.4
20260504005839 6 267 0.0 0.0 0.00 0.00 0.00 63 1007.2
20260504005336 6 268 0.0 0.0 0.00 0.00 0.00 63 1007.3
20260504004834 6 261 0.0 0.0 0.00 0.00 0.00 61 1007.3
20260504004331 7 284 1.6 3.2 0.00 0.00 0.00 61 1007.3
20260504003827 7 259 3.2 3.2 0.00 0.00 0.00 60 1007.1
20260504003325 7 264 1.6 3.2 0.00 0.00 0.00 60 1007.1
20260504002821 7 272 0.0 1.6 0.00 0.00 0.00 59 1006.9
20260504002318 7 298 3.2 4.8 0.00 0.00 0.00 58 1006.8
20260504001816 7 244 1.6 1.6 0.00 0.00 0.00 57 1006.6
20260504001313 7 300 1.6 3.2 0.00 0.00 0.00 57 1006.7
20260504000810 7 288 3.2 4.8 0.00 0.00 0.00 57 1006.5
20260504000307 7 282 3.2 4.8 0.00 0.00 0.00 56 1006.4
20260503235804 8 311 4.8 4.8 0.00 0.00 0.00 55 1006.4
20260503235304 8 260 3.2 3.2 0.00 0.00 0.00 56 1006.5
20260503234759 8 292 3.2 4.8 0.00 0.00 0.00 55 1006.3
20260503234257 8 235 4.8 4.8 0.00 0.00 0.00 55 1006.2
20260503233754 8 284 6.4 9.7 0.00 0.00 0.00 53 1006.0
20260503233249 8 264 1.6 3.2 0.00 0.00 0.00 56 1005.9
20260503232747 8 276 1.6 1.6 0.00 0.00 0.00 55 1005.8
20260503232244 8 292 1.6 3.2 0.00 0.00 0.00 55 1005.7